Millville, NJ

9:53 PM EST on December 15, 2019 (GMT -0500)
Millville Municipal

Weather History for KMIV - October, 2019

Change the Weather History Date:

Monday, October 14, 2019

  Actual Average Record
Temperature  
Mean Temperature 60 °F -  
Max Temperature 73 °F 69 °F 84 °F (1975)
Min Temperature 48 °F 47 °F 28 °F (1988)
Degree Days  
Heating Degree Days 4    
Growing Degree Days 10 (Base 50)    
Moisture  
Dew Point 54 °F    
Average Humidity 81    
Maximum Humidity 96    
Minimum Humidity 28    
Precipitation  
Precipitation 0.36 in - - ()
Sea Level Pressure  
Sea Level Pressure 29.99 in    
Wind  
Wind Speed 3 mph (NW)    
Max Wind Speed 15 mph    
Max Gust Speed 18 mph    
Visibility 6 miles    
Events Fog , Rain    
Averages and records for this station are not official NWS values.
T = Trace of Precipitation, MM = Missing Value Source: NWS Daily Summary

Daily Weather History Graph

Daily Weather History Graph

Search for Another Location

Airport or City:

Astronomy

Oct. 14, 2019 Rise Set
Actual Time 7:08 AM EDT 6:23 PM EDT
Civil Twilight 6:41 AM EDT 6:50 PM EDT
Nautical Twilight 6:10 AM EDT 7:21 PM EDT
Astronomical Twilight 5:39 AM EDT 7:52 PM EDT
Moon 7:12 PM EDT (10/14) 7:38 AM EDT (10/14)
Length of Visible Light 12h 08m
Length of Day
11h 14m
Waxing Gibbous, 99% of the Moon is Illuminated
Oct 14
Waxing Gibbous
Oct 21
Last Quarter
Oct 27
New
Nov 4
First Quarter
Nov 12
Full

Hourly Weather History & Observations

Time (EDT) Temp. Dew Point Humidity Pressure Visibility Wind Dir Wind Speed Gust Speed Precip Events Conditions
12:33 AM 60.1 °F 57.9 °F 93% 29.99 in 1.8 mi Calm Calm - 0.16 in Rain Heavy Rain
12:50 AM 60.8 °F 57.2 °F 88% 29.98 in 3.0 mi North 4.6 mph - 0.33 in Rain Light Rain
12:54 AM 60.1 °F 57.9 °F 93% 29.98 in 3.0 mi Calm Calm - 0.34 in Rain Light Rain
1:12 AM 60.1 °F 57.9 °F 93% 29.98 in 4.0 mi Calm Calm - 0.01 in   Overcast
1:26 AM 60.1 °F 57.9 °F 93% 29.97 in 2.5 mi Calm Calm - 0.02 in Rain Light Rain
1:37 AM 60.1 °F 59.0 °F 96% 29.97 in 5.0 mi Calm Calm - 0.02 in Rain Light Rain
1:54 AM 60.1 °F 59.0 °F 96% 29.97 in 9.0 mi Calm Calm - 0.02 in   Overcast
2:54 AM 60.1 °F 57.9 °F 93% 29.96 in 6.0 mi Calm Calm - N/A   Overcast
3:35 AM 60.1 °F 57.9 °F 93% 29.96 in 2.5 mi NW 3.5 mph - N/A   Overcast
3:54 AM 60.1 °F 57.9 °F 93% 29.95 in 2.5 mi NNW 4.6 mph - N/A   Overcast
4:14 AM 60.1 °F 57.9 °F 93% 29.95 in 4.0 mi NNW 4.6 mph - N/A   Overcast
4:54 AM 60.1 °F 57.9 °F 93% 29.96 in 5.0 mi North 5.8 mph - N/A   Overcast
5:12 AM 59.0 °F 57.9 °F 96% 29.96 in 1.8 mi North 4.6 mph - N/A   Overcast
5:24 AM 59.0 °F 57.9 °F 96% 29.96 in 0.8 mi North 3.5 mph - N/A   Mist
5:54 AM 59.0 °F 57.0 °F 93% 29.97 in 0.2 mi Calm Calm - N/A Fog Fog
6:54 AM 59.0 °F 57.0 °F 93% 29.98 in 0.2 mi Calm Calm - N/A Fog Fog
7:54 AM 59.0 °F 57.9 °F 96% 30.01 in 0.2 mi NW 4.6 mph - N/A Fog Fog
8:02 AM 59.0 °F 57.9 °F 96% 30.01 in 1.0 mi NW 4.6 mph - N/A   Overcast
8:06 AM 59.0 °F 57.9 °F 96% 30.01 in 3.0 mi NW 4.6 mph - N/A   Overcast
8:45 AM 60.1 °F 57.9 °F 93% 30.02 in 8.0 mi WNW 4.6 mph - N/A   Overcast
8:54 AM 60.1 °F 57.9 °F 93% 30.03 in 9.0 mi NW 4.6 mph - N/A   Overcast
9:54 AM 63.0 °F 55.9 °F 78% 30.03 in 10.0 mi NNW 5.8 mph - N/A   Scattered Clouds
10:01 AM 63.0 °F 55.9 °F 78% 30.03 in 10.0 mi WNW 4.6 mph - N/A   Mostly Cloudy
10:14 AM 64.0 °F 57.0 °F 78% 30.03 in 10.0 mi NNW 5.8 mph - N/A   Scattered Clouds
10:54 AM 64.9 °F 55.9 °F 73% 30.03 in 10.0 mi Variable 4.6 mph - N/A   Partly Cloudy
11:54 AM 68.0 °F 53.1 °F 59% 30.01 in 10.0 mi North - - N/A   Partly Cloudy
12:54 PM 70.0 °F 48.9 °F 47% 29.99 in 10.0 mi West 8.1 mph - N/A   Clear
1:54 PM 72.0 °F 44.1 °F 37% 29.98 in 10.0 mi WSW 10.4 mph - N/A   Clear
2:54 PM 73.0 °F 44.1 °F 35% 29.96 in 10.0 mi WNW 15.0 mph 18.4 mph N/A   Clear
3:54 PM 73.0 °F 37.9 °F 28% 29.95 in 10.0 mi West 11.5 mph - N/A   Clear
4:54 PM 72.0 °F 41.0 °F 33% 29.94 in 10.0 mi West 8.1 mph - N/A   Clear
5:54 PM 66.9 °F 45.0 °F 45% 29.96 in 10.0 mi WSW 3.5 mph - N/A   Clear
6:54 PM 57.0 °F 48.9 °F 74% 29.98 in 8.0 mi Calm Calm - N/A   Clear
7:54 PM 53.1 °F 48.9 °F 86% 30.00 in 10.0 mi Calm Calm - N/A   Clear
8:54 PM 51.1 °F 48.0 °F 89% 30.02 in 10.0 mi Calm Calm - N/A   Clear
9:54 PM 50.0 °F 48.0 °F 93% 30.03 in 10.0 mi Calm Calm - N/A   Clear
10:54 PM 50.0 °F 48.0 °F 93% 30.04 in 10.0 mi Calm Calm - N/A   Clear
11:17 PM 48.9 °F 46.0 °F 90% 30.04 in 10.0 mi Calm Calm - N/A   Partly Cloudy
11:54 PM 55.0 °F 51.1 °F 86% 30.06 in 10.0 mi Variable 3.5 mph - N/A   Clear